Powrót do katalogu

FENGYUN 1C DEB

AktywnyPO
NORAD 30197·DEBRIS·🇨🇳 China

Wystrzelony May 10, 1999 z Taiyuan Satellite Launch Center

Loading…

Następne Przeloty (najbliższe 24 godziny)

TLE

ŚwieżeSource: Space-Track

Epoka: Sep 14, 2026, 07:15 UTC

1 30197U 99025VE  26257.30212730  .00001250  00000-0  41775-3 0  9990
2 30197  98.9515 198.8643 0057742 122.1716  32.0136 14.38337671 24478

Śledź FENGYUN 1C DEB w czasie rzeczywistym z AllMySat

Download on the App Store